Retour au catalogue

STARLINK-36883

ActifCommunicationsSSO
NORAD 67975·PAYLOAD·🇺🇸 United States

Lancé Feb 25, 2026 depuis Vandenberg Space Force Base

Loading…

Prochains Passages (prochaines 24 heures)

TLE

FraisSource: CelesTrak SupGP

Époque: Sep 15, 2026, 04:21 UTC

1 67975C 26038Q   26258.18173611 -.00058364  00000+0 -18139-2 0  2583
2 67975  97.2844 266.6395 0001524  86.7517 181.4730 15.33430093    19

Suivez STARLINK-36883 en temps réel avec AllMySat

Download on the App Store